Volver al catálogo

STARLINK-5908

ActivoComunicacionesVLEO
NORAD 55951·PAYLOAD·🇺🇸 United States

Lanzado Mar 17, 2023 desde Vandenberg Space Force Base

Loading…

Próximos Pases (próximas 24 horas)

TLE

ActualizadoSource: CelesTrak SupGP

Época: Sep 14, 2026, 21:33 UTC

1 55951C 23037AP  26257.89840278 -.00041667  00000+0 -34919-2 0  2578
2 55951  70.0016 167.2115 0002827 268.4505 189.2767 14.98351779    18

Sigue STARLINK-5908 en tiempo real con AllMySat

Download on the App Store